SCP
0 0 0 0 0 0 0 0 0 0 0 0 0 0 0 1 1 1 0 0 0 0 0 0 0 0 0 0 1 1 1 0 0 0 0 0 0 0 0 0 0 0 0 0
0 0 0 0 0 0 0 0 0 0 0 0 0 0 0 1 1 1 0 0 0 0 0 1 0 0 0 0 1 1 1 0 0 0 0 0 0 0 0 0 0 0 0 0
0 0 0 0 0 0 0 0 0 0 0 0 0 0 0 1 1 1 0 0 0 0 1 1 1 1 0 0 1 1 1 0 0 0 0 0 0 0 0 0 0 0 0 0
0 0 0 0 0 0 0 0 0 0 0 0 0 0 1 1 1 1 1 1 0 1 1 1 1 0 0 0 0 0 0 0 0 0 1 1 0 0 0 0 0 0 0 0
0 0 0 0 0 0 0 0 0 0 0 0 0 0 1 1 1 1 1 1 1 0 0 0 0 0 0 0 0 0 0 0 0 0 0 1 1 1 0 0 0 0 0 0
0 0 0 0 0 0 0 0 0 0 0 0 0 0 1 1 1 1 1 1 1 0 0 0 0 0 0 0 0 0 0 0 0 0 0 1 1 1 1 0 0 0 0 0
0 0 0 0 0 0 0 0 0 0 0 0 1 1 1 1 1 1 1 1 0 0 0 0 0 0 0 0 0 0 0 0 0 0 0 0 1 1 1 0 0 0 0 0
0 0 0 0 0 0 0 0 0 0 0 1 1 1 1 1 1 1 1 1 1 0 1 1 0 0 0 0 0 0 0 0 0 0 0 0 0 0 0 0 0 0 0 0
0 0 0 0 0 0 0 0 0 0 0 1 1 1 1 1 1 1 1 1 1 1 1 1 1 0 0 0 0 0 0 0 0 0 0 0 0 0 0 0 0 0 0 0
0 0 0 0 0 0 0 0 0 0 0 0 1 1 1 1 1 1 1 1 1 1 1 1 0 0 0 0 0 0 0 0 0 0 0 0 0 0 0 0 0 0 0 0
0 0 0 0 0 0 0 0 0 0 0 0 1 1 1 1 1 1 1 1 1 1 1 1 0 0 0 0 0 0 0 0 0 0 0 0 0 0 0 0 0 0 0 0
0 0 0 0 0 0 0 0 0 0 0 0 0 0 1 1 1 1 1 1 1 1 0 0 0 0 0 0 0 0 0 0 0 0 0 0 0 0 0 0 0 0 0 0
0 0 0 0 0 0 0 0 0 0 0 0 0 0 0 1 1 1 1 1 0 0 0 0 0 0 0 0 0 0 0 0 0 0 0 0 0 0 0 0 0 0 0 0
0 0 0 0 0 0 0 0 0 0 0 0 0 0 0 0 0 0 0 0 0 0 0 0 0 0 0 0 0 0 0 0 0 0 0 0 0 0 0 0 0 0 0 0
0 0 0 0 0 0 0 0 0 0 0 0 0 0 0 0 0 0 0 0 0 0 0 0 0 0 0 0 0 0 0 0 0 0 0 0 0 0 0 0 0 0 0 0
0 0 0 0 0 0 0 0 0 0 0 0 0 0 0 0 0 0 0 0 0 0 0 0 0 0 0 0 0 0 0 0 0 0 0 0 0 0 0 0 0 0 0 0
0 0 0 0 0 0 0 0 0 0 0 0 0 0 0 0 0 0 0 0 0 0 0 0 0 0 0 0 0 0 0 0 0 0 0 0 0 0 0 0 0 0 0 0
0 0 0 0 0 0 0 0 0 0 0 0 0 0 0 0 0 0 0 0 0 0 0 0 0 0 0 0 0 0 0 0 0 0 0 0 0 0 0 0 0 0 0 0
0 0 0 0 0 0 0 0 0 0 0 0 0 0 0 0 0 0 0 0 0 0 0 0 0 0 0 0 0 0 0 0 0 0 0 0 0 0 0 0 0 0 0 0
0 0 0 0 0 0 0 0 0 0 0 0 0 0 0 0 0 0 0 0 0 0 0 0 0 0 0 0 0 0 0 0 0 0 0 0 0 0 0 0 0 0 0 0
0 0 0 0 0 0 0 0 0 0 0 0 0 0 0 0 0 0 0 0 0 0 0 0 0 0 0 0 0 0 0 0 0 0 0 0 0 0 0 0 0 0 0 0
0 0 0 0 0 0 0 0 0 0 0 0 0 0 0 0 0 0 0 0 0 0 0 0 0 0 0 0 0 0 0 0 0 0 0 0 0 0 0 0 0 0 0 0
0 0 0 0 0 0 0 0 0 0 0 0 0 0 0 0 0 0 0 0 0 0 0 0 0 0 0 0 0 0 0 0 0 0 0 0 0 0 0 0 0 0 0 0
0 0 0 0 0 0 0 0 0 0 0 0 0 0 0 0 0 0 0 0 0 0 0 0 0 0 0 0 0 0 0 0 0 0 0 0 0 0 0 0 0 0 0 0
0 0 0 0 0 0 0 0 0 0 0 0 0 0 0 0 0 0 0 0 0 0 0 0 0 0 0 0 0 0 0 0 0 0 0 0 0 0 0 0 0 0 0 0
0 0 0 0 0 0 0 0 0 0 0 0 0 0 0 0 0 0 0 0 0 0 0 0 0 0 0 0 0 0 0 0 0 0 0 0 0 0 0 0 0 0 0 0
0 0 0 0 0 0 0 0 0 0 0 0 0 0 0 0 0 0 0 0 0 0 0 0 0 0 0 0 0 0 0 0 0 0 0 0 0 0 0 0 0 0 0 0
Wind_Speed
11 13 11 9 9 8 8 7 6 4 2 2 3 4 4 5 6 6 5 5 4 4 4 4 3 2 2 1 2 2 2 2 2 2 2 2 2 1 1 1 1 2 2 2
11 12 12 10 10 9 8 8 6 5 1 1 2 3 4 4 5 5 5 5 4 4 4 3 2 2 1 1 1 1 1 2 2 2 2 2 2 2 1 1 1 1 1 1
10 12 10 9 7 7 6 4 3 4 1 2 3 3 4 4 4 4 3 4 4 4 3 3 2 1 1 0 1 2 2 1 1 2 2 2 2 1 2 1 1 1 1 1
9 11 12 4 2 3 2 2 3 1 3 2 4 4 3 4 4 4 4 3 3 3 3 3 2 1 1 1 1 1 1 2 1 1 1 2 2 2 1 1 1 1 1 1
7 9 7 4 3 4 3 1 4 4 2 3 3 4 4 5 4 3 3 3 3 3 3 2 1 1 1 1 1 1 1 1 1 1 1 1 1 2 2 2 2 2 2 2
8 8 7 3 6 5 2 1 4 3 2 2 2 2 2 3 2 3 3 3 3 3 3 2 1 1 1 1 1 1 1 1 0 0 1 1 2 2 2 2 2 2 2 2
8 7 1 6 7 5 3 2 5 4 3 2 0 1 2 2 2 4 4 4 4 3 3 2 1 1 1 0 1 1 1 1 0 0 1 2 2 2 2 2 3 3 3 2
4 4 1 8 6 5 4 4 4 4 4 3 3 4 4 4 4 5 4 4 3 3 2 2 1 1 1 0 1 2 1 1 1 1 1 1 1 1 2 2 3 3 3 3
4 3 4 6 5 5 4 4 4 3 3 3 2 4 4 4 5 4 3 3 2 2 2 2 1 1 1 0 1 1 2 2 1 1 1 1 1 2 2 2 3 3 3 3
3 4 5 7 8 8 7 6 6 5 4 4 3 3 4 4 3 3 2 2 2 2 2 1 1 0 0 0 1 1 1 2 1 1 1 1 1 1 1 1 2 2 2 2
2 2 4 7 7 7 7 6 6 5 5 5 3 3 3 3 2 1 1 2 1 2 1 1 0 1 1 0 0 1 1 2 2 2 1 1 1 1 1 1 1 2 2 2
3 4 3 3 5 6 6 6 5 5 5 5 3 2 2 2 1 1 1 1 1 1 1 1 0 1 1 1 0 1 2 3 3 2 2 2 2 1 1 1 2 3 3 3
3 5 4 3 4 6 6 5 5 4 4 4 3 2 1 1 2 2 1 1 0 0 0 0 1 2 2 2 2 2 2 3 3 3 3 2 2 3 2 2 2 3 4 5
4 4 3 4 4 5 5 4 4 4 4 3 3 3 2 2 2 1 0 0 1 1 1 1 1 1 2 2 2 3 4 4 4 3 3 3 3 3 3 4 3 2 3 6
4 4 4 5 4 4 4 3 3 3 3 3 3 3 3 2 1 1 1 1 1 2 2 1 1 2 2 2 2 3 4 3 3 4 4 4 4 4 4 4 4 3 2 3
6 5 5 4 4 5 5 4 4 3 2 3 3 3 3 2 2 1 1 1 1 2 2 2 2 2 2 2 3 3 3 5 5 5 5 4 4 5 4 4 3 3 3 2
6 6 7 6 5 5 5 5 4 4 3 3 3 3 3 2 2 2 2 2 2 2 2 2 2 3 3 2 3 3 3 4 5 5 5 4 4 4 3 3 4 3 3 3
5 5 5 6 5 5 5 5 4 4 3 3 2 2 2 2 2 2 3 3 3 2 3 3 3 3 4 2 3 4 4 3 4 5 4 4 5 5 4 4 4 4 3 3
5 6 6 6 6 5 5 5 5 4 4 3 3 3 3 3 2 2 3 3 4 4 3 3 3 3 3 3 4 4 5 5 4 4 4 5 5 5 4 4 4 3 2 1
6 7 8 8 7 6 6 6 5 4 3 3 3 3 3 3 3 3 3 2 2 3 3 3 3 3 3 3 4 5 5 5 4 4 5 5 5 4 4 4 3 2 2 2
7 8 8 8 8 8 6 6 5 4 3 3 3 3 3 3 3 3 3 2 2 3 3 2 2 3 3 4 5 5 5 5 4 4 5 5 5 4 4 4 3 2 2 2
7 7 8 8 8 8 7 6 5 4 4 3 3 3 4 3 3 2 2 2 2 1 2 1 1 3 4 6 4 5 5 5 4 4 4 4 4 4 3 4 3 3 2 2
7 7 8 8 7 8 8 6 5 5 4 4 3 3 4 4 3 3 2 1 2 2 3 2 2 3 5 5 5 5 5 4 4 4 4 4 4 4 4 4 3 2 2 2
6 6 7 7 7 7 7 6 6 5 5 4 3 3 3 3 2 3 2 1 2 3 3 1 2 3 5 4 4 5 4 4 4 4 4 3 3 4 4 4 3 2 2 2
6 7 7 6 6 5 5 5 5 5 5 4 4 4 3 2 3 3 3 2 2 3 3 2 3 5 5 4 4 4 3 3 4 4 4 3 4 4 4 4 3 2 2 2
6 6 5 5 5 5 5 5 4 4 4 3 3 3 2 2 3 2 2 3 2 3 3 2 2 4 4 4 4 4 3 3 3 3 3 3 4 4 4 5 5 3 2 2
5 5 4 4 4 4 4 4 5 5 5 4 4 3 3 3 3 3 3 3 2 3 3 3 2 2 3 4 4 2 2 2 3 3 3 3 3 4 4 6 5 4 2 2
Wind_Direction
268 273 270 261 259 261 258 258 264 266 208 154 124 129 122 126 131 132 133 128 125 121 112 110 106 107 110 113 119 124 152 161 164 171 187 195 206 210 215 211 204 192 200 217
270 265 266 264 260 253 251 253 256 263 290 80 110 135 139 132 139 148 157 145 129 122 122 120 105 94 87 92 117 143 169 168 167 175 180 195 197 185 191 198 187 175 199 222
271 269 263 254 263 263 259 260 240 243 238 136 145 152 147 137 137 139 141 129 125 122 120 114 105 90 107 124 171 169 160 146 172 179 178 194 190 173 193 195 183 210 215 199
265 263 253 256 289 306 296 334 314 302 130 149 126 124 117 130 138 144 136 126 120 115 113 110 115 119 179 180 204 192 164 163 182 190 195 186 172 185 194 186 184 211 227 227
258 254 248 258 306 293 276 308 5 11 35 73 89 126 125 109 111 116 110 109 111 119 119 111 114 134 205 206 216 209 200 207 199 195 185 179 186 203 202 195 201 209 217 220
257 261 249 325 342 330 265 181 17 18 38 91 101 140 126 96 103 116 107 107 114 118 117 119 121 182 230 239 244 270 285 285 243 214 199 194 206 217 214 206 204 215 223 217
252 257 259 350 340 320 273 8 6 15 29 56 3 65 116 106 107 104 110 118 119 125 131 141 167 213 233 273 308 309 318 311 297 221 203 190 197 202 206 214 207 214 220 218
260 250 313 0 16 32 31 19 11 23 30 31 42 68 102 111 105 109 110 111 113 118 129 150 169 189 229 309 317 318 319 312 318 311 279 211 171 193 214 226 214 210 215 217
26 76 63 36 52 53 47 33 21 27 29 14 77 96 95 90 94 94 102 107 118 140 139 134 146 181 247 284 298 316 325 320 309 313 301 253 221 205 217 228 231 225 223 221
53 67 57 49 47 39 37 35 28 28 26 32 65 85 88 94 92 93 97 118 121 122 119 121 143 187 309 311 314 318 312 307 291 276 256 241 262 239 221 254 259 245 239 231
75 43 46 39 27 24 29 30 34 28 30 25 55 75 83 93 85 89 100 93 104 113 114 118 234 240 245 275 335 316 298 290 284 266 258 219 228 272 267 240 250 256 266 262
21 18 12 6 3 6 17 22 26 21 23 20 49 67 81 105 91 87 89 97 85 81 85 70 330 308 325 3 231 269 278 283 284 273 246 233 219 230 328 250 253 252 249 249
13 356 351 355 3 5 8 19 17 11 17 16 30 33 79 88 79 69 60 60 57 46 33 321 319 330 343 349 350 323 302 295 292 290 272 252 240 236 236 241 254 266 249 237
358 344 346 348 354 360 0 26 21 7 12 26 28 23 37 55 69 77 50 356 324 285 259 273 312 332 339 344 342 324 302 289 289 286 281 273 263 251 245 240 233 239 239 223
341 334 339 340 340 344 354 10 10 4 12 18 12 9 12 15 19 16 316 263 251 263 259 272 293 318 326 325 322 305 294 295 296 288 282 274 271 264 255 254 241 228 217 223
327 333 333 330 335 343 348 354 352 344 354 3 2 357 354 351 351 355 331 315 282 275 277 288 298 304 303 305 304 295 292 295 294 283 277 275 271 267 258 254 253 238 223 223
343 344 339 336 337 340 340 337 334 331 337 346 352 354 350 341 346 355 340 326 305 298 290 281 287 289 280 277 281 281 280 285 287 282 277 272 271 270 270 262 258 249 238 223
343 339 335 327 322 325 325 325 329 331 334 331 335 345 342 333 331 329 324 322 318 317 317 307 303 286 277 276 287 284 286 277 272 278 284 283 280 274 268 267 266 260 250 219
351 348 344 338 332 326 324 326 332 335 335 333 335 342 342 338 325 316 314 314 308 300 308 306 296 285 301 311 304 287 284 281 281 285 286 281 272 271 275 275 272 264 262 251
350 347 347 345 341 336 332 329 329 328 325 324 328 326 323 323 317 306 303 303 304 308 306 297 286 290 288 299 302 293 295 294 297 296 292 287 284 281 274 275 277 272 256 250
347 347 346 344 341 338 335 331 327 332 331 323 315 310 310 308 303 298 290 291 312 319 304 292 284 294 305 310 287 287 292 293 297 300 295 291 290 292 292 288 284 280 267 259
345 347 343 340 338 334 330 324 320 317 313 311 308 308 308 305 300 297 289 293 303 329 293 286 314 320 322 305 287 284 287 292 293 289 289 293 295 293 293 294 293 293 290 283
341 338 332 328 327 322 321 321 321 318 310 305 305 303 296 298 300 296 294 310 323 303 286 302 321 307 300 291 291 290 291 293 297 294 294 300 302 304 298 292 292 286 288 294
334 329 322 319 318 315 318 321 322 322 319 312 304 304 306 301 296 292 281 241 256 275 284 273 235 270 276 279 288 292 294 299 300 304 308 309 310 312 312 307 299 294 292 289
333 326 322 323 315 310 310 306 310 320 319 324 326 321 318 312 305 305 301 283 240 252 270 251 230 254 265 283 289 293 297 311 322 326 323 326 323 320 317 312 305 298 291 287
329 319 323 322 318 320 325 330 326 323 324 326 326 322 324 322 314 311 312 311 307 275 278 271 250 252 274 291 300 312 316 317 317 320 331 336 335 335 330 325 322 317 315 317
318 321 319 326 348 349 339 334 329 334 336 333 333 330 324 328 329 329 335 336 328 315 308 302 299 289 295 301 304 317 333 342 347 347 346 347 342 340 338 336 330 328 329 330